Location: Aldenham
(51.6667°N, 0.3500°W)
Time: 01:05:42
(UTC+00:00)

Vanguard 2 - Pass Details

Date: 24 February 2026
Orbit: 553 x 2896 km, 32.9° (Epoch: 7 March)

Event Time Altitude Azimuth Distance (km) Brightness Sun altitude
Exits shadow 03:34:56 11° 160° (SSE) 2,920 10.4 -31.5°
Drops below altitude 10° 03:35:44 10° 153° (SSE) 2,907 10.5 -31.3°
Sets 03:40:09 0° 120° (ESE) 3,414 11.3 -30.7°
